Regional Weather Roundup
Issued by NWS

Current Version | Previous Version | Text Only | Print | Product List | Glossary On
Versions: 1 2 3 4 5 6 7 8 9 10 11 12 13 14 15 16 17 18 19 20 21 22 23 24 25 26 27 28 29 30 31 32 33 34 35 36 37 38 39 40 41 42 43 44 45 46 47 48 49 50
000
ASUS42 KTBW 061210
RWRFL
FLORIDA REGIONAL WEATHER ROUNDUP
NATIONAL WEATHER SERVICE TAMPA BAY RUSKIN FL
700 AM EST FRI MAR 06 2015

NOTE: "FAIR" INDICATES FEW OR NO CLOUDS BELOW 12,000 FEET WITH NO
SIGNIFICANT WEATHER AND/OR OBSTRUCTIONS TO VISIBILITY.


FLZ001>010-012>015-112-114-115-061300-
PANHANDLE FLORIDA

CITY           SKY/WX    TMP DP  RH WIND       PRES   REMARKS
PENSACOLA      PTCLDY    29  22  75 N16G23    30.36R WCI  17
PENSACOLA NAS  PTCLDY    30  23  75 N9        30.36R WCI  22
MILTON NAS     MOCLDY    28  21  75 N6        30.37R WCI  22
CRESTVIEW      CLEAR     29  23  78 N10G17    30.37R WCI  20
DUKE FIELD     FAIR      29  24  80 N10G18    30.34R WCI  20
VALPARAISO     MOCLDY    31  24  76 N14       30.33R WCI  21
MARY ESTHER    PTCLDY    30  20  66 N15       30.34R WCI  19
TRI COUNTY     FAIR      32  26  78 N10       30.36R WCI  24
PANAMA CITY    FAIR      34  28  79 N10       30.31R WCI  26
TYNDALL AFB    MOCLDY    38  31  77 N12G21    30.29R WCI  30
APALACHICOLA   CLEAR     44  34  67 N15       30.27R WCI  37

STATION/POSITION SKY/WX   TEMP    WIND        PRES    WAVE   SWELL
                          AIR SEA DIR/SP/G            HT/PER HT/PER
                          (F)     (DEG/KT/KT) (MB)    (FT/S) (FT/S)
30.1N   87.6W              35 61  360/ 19/ 25 1027.3R   4/ 4
29.2N   88.2W              43 67   20/ 21/ 27 1027.6R   7/ 7
PANAMA CITY BEAC           35 58   10/ 13/ 22 1026.0R
CAPE SAN BLAS    NOT AVBL
TOWER C                    44      20/ 21/ 23 1024.2R
28.5N   84.5W              57 68   30/ 19/ 23 1022.2R   7/ 6   2/11

$$
FLZ011-016>038-118-127-128-134-139-239-061300-
NORTH FLORIDA

CITY           SKY/WX    TMP DP  RH WIND       PRES   REMARKS
MARIANNA       CLEAR     34  28  79 N9        30.34R WCI  27
TALLAHASSEE    MOCLDY    43  34  70 N8        30.28R WCI  38
CROSS CITY       N/A     52  46  80 NE13      30.23R
LAKE CITY      CLOUDY    46  45  93 NE6       30.25S WCI  43
GAINESVILLE    CLOUDY    53  51  93 N10       30.24R
MAYPORT NAS    CLOUDY    50  48  93 NE18G29   30.26R WCI  44
JACKSONVILLE   DRIZZLE   48  48 100 NE14      30.28R FOG     WCI  42
JAX NAS        CLOUDY    54  48  80 NE20      30.27R FOG
JAX CRAIG      CLOUDY    50  47  89 NE13G28   30.27R FOG
JAX CECIL      CLOUDY    50  48  93 N8        30.26R FOG
FERNANDINA BEA CLOUDY    52  50  93 N14G25    30.26R
ST AUGUSTINE   LGT RAIN  54  52  94 N17       30.25R FOG

STATION/POSITION SKY/WX   TEMP    WIND        PRES    WAVE   SWELL
                          AIR SEA DIR/SP/G            HT/PER HT/PER
                          (F)     (DEG/KT/KT) (MB)    (FT/S) (FT/S)
SHELL POINT                42     360/ 11/ 15   N/A
KEATON BEACH               47      10/ 10/ 14 1024.1R
CEDAR KEY                  57      30/ 11/ 14 1022.6R
FERNANDINA                 48 58   20/ 11/ 21 1024.6R
30.7N   81.3W                 54                N/A     6/ 5   2/11
MAYPORT                    50 55   30/ 18/ 25 1024.6R
31.4N   80.9W              47 55   30/ 23/ 29 1025.2R   6/ 7   2/11
ST AUGUSTINE               53      10/ 20/ 22 1024.4R

$$
FLZ040-043>046-052-053-057-058-063-144-061300-
INTERIOR CENTRAL FLORIDA

CITY           SKY/WX    TMP DP  RH WIND       PRES   REMARKS
OCALA          CLOUDY    61  57  88 N6        30.20R FOG
THE VILLAGES     N/A     66  64  94 N8        30.09R FOG
LEESBURG       CLOUDY    67  64  90 NE10      30.18R
SANFORD        CLOUDY    61  58  90 NE13      30.20R
ORLANDO EXEC   CLOUDY    66  64  93 NE14      30.18R
ORLANDO INTL   CLOUDY    72  70  93 E5        30.17R
KISSIMMEE      MOCLDY    72  70  94 CALM      30.17
WINTER HAVEN   CLOUDY    70  68  93 CALM      30.18R
LAKELAND       CLOUDY    68  68 100 CALM      30.17R FOG
BARTOW         CLOUDY    70  70 100 CALM      30.18R FOG
OKEECHOBEE     FOG       64  64 100 CALM      30.17R VSB 1/4

$$
FLZ041-047-054-059-064-141-147-061300-
EAST CENTRAL FLORIDA

CITY           SKY/WX    TMP DP  RH WIND       PRES   REMARKS
ORMOND BEACH   CLOUDY    55  54  94 N12G17    30.21  FOG
DAYTONA BEACH  CLOUDY    58  55  90 N13       30.21R
DELAND         CLOUDY   N/A N/A N/A N9        30.21S
NEW SMYRNA BEA CLOUDY    57  57 100 N13G29    30.22  FOG
JFK SPACE CTR  CLOUDY    63  61  94 N12G20    30.18R
TITUSVILLE     CLOUDY    64  64 100 N17       30.18
CAPE CANAVERAL CLEAR     65  64  93 N8        30.16R
PATRICK AFB    MOCLDY    67  66  97 NE13      30.17R
MELBOURNE      CLOUDY    69  67  93 N9        30.16R
VERO BEACH     CLOUDY    66  62  87 CALM      30.17R
FT PIERCE      FOG       63  62  97 NW3       30.17R VSB 3/4
STUART         PTCLDY    66  66 100 NW5       30.17R FOG

STATION/POSITION SKY/WX   TEMP    WIND        PRES    WAVE   SWELL
                          AIR SEA DIR/SP/G            HT/PER HT/PER
                          (F)     (DEG/KT/KT) (MB)    (FT/S) (FT/S)
28.5N   80.2W              70 71  350/ 14/ 16 1020.9R
28.9N   78.5W              75 75  290/  6/  8 1020.8R   4/11   3/11
TRIDENT PIER               66 66  360/ 10/ 13 1022.0R
28.4N   80.5W                 65                N/A     2/11   2/11
27.6N   80.2W                 73                N/A     2/11   2/11

$$
FLZ050-056-061-142-242-148-248-149-249-151-251-155-255-
160-260-061300-
WEST CENTRAL FLORIDA

CITY           SKY/WX    TMP DP  RH WIND       PRES   REMARKS
CRYSTAL RIVER  CLOUDY    63  61  94 NE7       30.18S
INVERNESS      CLOUDY    66  63  88 NE8       30.19R
BROOKSVILLE    CLOUDY    68  66  93 N8        30.18R
ZEPHYRHILLS    DRIZZLE   64  64 100 N5        30.18R
CLEARWATER     CLOUDY    67  66  97 CALM      30.16R
TAMPA INTL     FOG       69  66  90 N3        30.17R VSB 1
TAMPA EXEC     CLOUDY    72  68  88 CALM      30.17R FOG
PLANT CITY     CLOUDY   N/A N/A N/A MISG      30.18R FOG
MACDILL AFB    CLOUDY    68  68 100 NW2       30.17R FOG
PETER O KNIGHT CLOUDY    72  70  94 MISG      30.17R
ST PETERSBURG  CLOUDY    67  66  97 NE6       30.15R
SARASOTA       CLOUDY    68  68 100 CALM      30.16R FOG
VENICE         CLOUDY    68  68 100 CALM      30.17S FOG

STATION/POSITION SKY/WX   TEMP    WIND        PRES    WAVE   SWELL
                          AIR SEA DIR/SP/G            HT/PER HT/PER
                          (F)     (DEG/KT/KT) (MB)    (FT/S) (FT/S)
CEDAR KEY                  57      30/ 11/ 14 1022.6R
28.5N   84.5W              57 68   30/ 19/ 23 1022.2R   7/ 6   2/11
27.3N   84.3W                 71                N/A     4/ 5
CLEARWATER BEACH           66 67  350/  9/ 10 1021.3R
MIDDLE TAMPA BAY           67     360/  8/  9 1021.6R
VENICE                     69 71  340/  2/  3 1021.1R

$$
FLZ066-069-070-075>078-162-262-165-265-061300-
SOUTHWEST FLORIDA AND KEYS

CITY           SKY/WX    TMP DP  RH WIND       PRES   REMARKS
PUNTA GORDA    CLOUDY    69  68  96 NW6       30.19R
FT MYERS       FOG       69  69 100 CALM      30.16R VSB 1/2
SOUTHWEST INTL FOG       68  68 100 N3        30.16R VSB 1/4
NAPLES         CLOUDY    69  69 100 CALM      30.16R FOG
MARCO ISLAND   CLOUDY    66  64  94 NE3       30.16R
IMMOKALEE      CLOUDY   N/A N/A N/A CALM      30.17R VSB 0
MARATHON       CLEAR     72  69  90 E3        30.14R
KEY WEST NAS   CLEAR     72  69  90 E6        30.14R
KEY WEST INTL  CLEAR     74  70  87 E5        30.14R

STATION/POSITION SKY/WX   TEMP    WIND        PRES    WAVE   SWELL
                          AIR SEA DIR/SP/G            HT/PER HT/PER
                          (F)     (DEG/KT/KT) (MB)    (FT/S) (FT/S)
VENICE                     69 71  340/  2/  3 1021.1R
NAPLES                     69 72   60/  3/  4 1021.1R
26.0N   85.6W              72 77   20/ 16/ 17 1020.7R   4/ 5   2/ 8
DRY TORTUGAS               74     130/  6/  7 1019.8R
NW FL BAY                  77     110/  5/  7 1020.5R
SAND KEY                   75      90/  7/  9 1020.5R
SOMBRERO KEY               75      70/  8/  9 1021.3R
LONG KEY                   76 78   80/  6/  7 1021.4R
MOLASSES REEF              75 75   90/  8/  8 1020.9R

$$
FLZ067-068-071>074-168-172>174-061300-
SOUTHEAST FLORIDA

CITY           SKY/WX    TMP DP  RH WIND       PRES   REMARKS
W PALM BEACH   LGT RAIN  74  71  91 S7        30.15R
FT LAUDER-EXEC CLOUDY    71  71 100 CALM      30.16R
FT LAUDERDALE  PTCLDY    73  71  93 CALM      30.15R
POMPANO BEACH  MOCLDY    71  68  90 CALM      30.16R
PEMBROKE PINES CLEAR     70  69  97 CALM      30.17R
OPA LOCKA      PTCLDY    69  68  96 CALM      30.16R
MIAMI          PTCLDY    69  67  93 CALM      30.16R
WEST KENDALL   CLEAR     64  64 100 CALM      30.16R
HOMESTEAD      CLEAR     66  65  94 NW2       30.15R

STATION/POSITION SKY/WX   TEMP    WIND        PRES    WAVE   SWELL
                          AIR SEA DIR/SP/G            HT/PER HT/PER
                          (F)     (DEG/KT/KT) (MB)    (FT/S) (FT/S)
PORT EVERGLADES            73     210/  1/  2 1021.1
VIRGINIA KEY               74 77   80/  3/  4 1020.7R
LAKE WORTH                 71 75  190/ 10/ 12 1021.0R


USA.gov is the U.S. government's official web portal to all federal, state and local government web resources and services.